Volver al catálogo

STARLINK-11131

ActivoComunicacionesVLEO
NORAD 59756·PAYLOAD·🇺🇸 United States

Lanzado May 14, 2024 desde Vandenberg Space Force Base

Loading…

Próximos Pases (próximas 24 horas)

TLE

ActualizadoSource: CelesTrak SupGP

Época: Sep 14, 2026, 21:13 UTC

1 59756C 24091D   26257.88451389 -.00010743  00000+0 -88450-4 0  2578
2 59756  53.1572 353.7652 0001070  80.3222  17.8805 15.69727642    12

Sigue STARLINK-11131 en tiempo real con AllMySat

Download on the App Store